STARLINK-31995, 59958

Orbit data source: Space-Track

STARLINK-31995, 59958 is a payload satellite owned by SpaceX/Seattle (US) in LEO that was launched on Wed, 05 Jun 2024 UTC via an FALCON 9 launch vehicle from the Air Force Eastern Test Range (AFETR). Payload-class satellites include a variety of spacecraft equipped with specific instruments for various scientific and technological missions. These include communications satellites like Starlink; space stations such as the ISS; scientific satellites like the Hubble; Earth observation satellites from companies like Planet Labs, Umbra, and HawkEye 360; GPS; miniature CubeSats for education and research; and military/defense satellites.

Loading next visibility...
Identifier
59958, 2024-107P
Orbit
LEO
Country
Flag of USUS
Related business
Manufacturer
SpaceX/Seattle
Mission
Operational spacecraft
Bus & Motor
STARLINK V2M, Unknown motor
Mass
730 kg wet, ~700 kg dry
Launch date (UTC)
2024-06-05 (1 year ago)
Launch vehicle
FALCON 9
Launch site
Air Force Eastern Test Range (AFETR)
Object type
Payload
Rocket body
Debris
Shape & HBR
Unknown
Radar Cross Section
Large (>1 m²)

Expand to show TLE details & history
Last TLE update: 23 hours ago

TLE from 23 hours ago
0 STARLINK-31995
1 59958U 24107P   25260.90895179  .00001720  00000-0  70160-4 0  9991
2 59958  53.1602 148.0352 0000974  86.2251 273.8862 15.30203717 72141
Epoch: 2025-09-17T21:48Z
TLE epoch observation values (Epoch: 2025-09-17T21:48:53.434Z)
Latitude
0.00004°
Longitude
-176.26555°
Altitude
476.059 km
Speed
7.629 km/s
True Right ascension
09h 52m 08s
True Declination
0° 00' 00"
Sunlit
Object was in daylight at epoch
Visualization orbit readout
Latitude
Unknown
Longitude
Unknown
Altitude
Unknown
Speed
Unknown
Apparent Right ascension
Unknown
Apparent Declination
Unknown
Sunlit
N/A
Visualization observer readout
Local Sidereal Time
13:53:12
Azimuth
Unknown
Elevation
Unknown
Doppler factor
Unknown
Orbital elements
Apogee altitude
476.128 km
Perigee altitude
474.793 km
Semi-major axis
6,853.597 km
Eccentricity
0.0001
Inclination
53.1602°
RAAN
148.0352°
Arg. of periapsis
86.2251°
True anomaly
273.87506°
Mean anomaly
273.8862°
Eccentric anomaly
273.88063°
Mean motion
3.8253 °/min
Orbital period
94.11 mins
BSTAR
0.00007016
Loading maneuver chart data...
Computing Atmospheric mass density...
Loading historical data...
Loading historical data...
Loading historical data...
Loading historical data...
Loading historical data...
Loading historical data...
Loading historical data...

Documentation

Showing up to 5 results
|